Voltar ao catálogo

COSMOS 445

AtivoMilitarLEO
NORAD 5548·PAYLOAD·🇷🇺 Russia

Lançado Oct 13, 1971 de Plesetsk Cosmodrome

Loading…

Próximas Passagens (próximas 24 horas)

TLE

AtualizadoSource: Space-Track

Época: Sep 14, 2026, 04:32 UTC

1 05548U 71086B   26257.18948981  .00000014  00000-0  17077-3 0  9994
2 05548  74.0294 168.0342 0102575 104.4607  47.5047 12.58230145522418

Acompanhe COSMOS 445 em tempo real com AllMySat

Download on the App Store